Satellite: SO-50
Catalog number: 27607
Epoch time:      12201.43148710
Element set:    0816
Inclination:      064.5553 deg
RA of node:       196.8084 deg
Eccentricity:    0.0081325
Arg of perigee:   242.2791 deg
Mean anomaly:     117.0031 deg
Mean motion:   14.72436005 rev/day
Decay rate:       5.03e-06 rev/day^2
Epoch rev:           51471
Checksum:              267

Satellite: CO-55
Catalog number: 27844
Epoch time:      12201.59237451
Element set:    0422
Inclination:      098.7028 deg
RA of node:       209.4992 deg
Eccentricity:    0.0010299
Arg of perigee:   124.8092 deg
Mean anomaly:     235.4049 deg
Mean motion:   14.21044622 rev/day
Decay rate:       2.10e-06 rev/day^2
Epoch rev:           46949
Checksum:              299

Satellite: CO-57
Catalog number: 27848
Epoch time:      12202.58763149
Element set:     371
Inclination:      098.7124 deg
RA of node:       209.8294 deg
Eccentricity:    0.0010364
Arg of perigee:   126.6996 deg
Mean anomaly:     233.5128 deg
Mean motion:   14.20793927 rev/day
Decay rate:       1.57e-06 rev/day^2
Epoch rev:           46957
Checksum:              342

Satellite: AO-51
Catalog number: 28375
Epoch time:      12201.50786094
Element set:    0321
Inclination:      098.1501 deg
RA of node:       165.2836 deg
Eccentricity:    0.0083485
Arg of perigee:   303.9482 deg
Mean anomaly:     055.3812 deg
Mean motion:   14.40966739 rev/day
Decay rate:       1.59e-06 rev/day^2
Epoch rev:           42342
Checksum:              307

Satellite: CP3
Catalog number: 31129
Epoch time:      12201.58413951
Element set:     216
Inclination:      097.8833 deg
RA of node:       207.4524 deg
Eccentricity:    0.0101554
Arg of perigee:   023.1559 deg
Mean anomaly:     337.4162 deg
Mean motion:   14.53132399 rev/day
Decay rate:       9.51e-06 rev/day^2
Epoch rev:           27868
Checksum:              294

Satellite: CO-65
Catalog number: 32785
Epoch time:      12201.69795178
Element set:    0367
Inclination:      097.7987 deg
RA of node:       261.9775 deg
Eccentricity:    0.0013788
Arg of perigee:   320.2254 deg
Mean anomaly:     039.7874 deg
Mean motion:   14.83063342 rev/day
Decay rate:       8.83e-06 rev/day^2
Epoch rev:           22858
Checksum:              365

Satellite: PRISM
Catalog number: 33493
Epoch time:      12202.83958089
Element set:     899
Inclination:      098.1746 deg
RA of node:       344.2138 deg
Eccentricity:    0.0018812
Arg of perigee:   183.8246 deg
Mean anomaly:     176.2820 deg
Mean motion:   14.84044342 rev/day
Decay rate:      2.468e-05 rev/day^2
Epoch rev:           18874
Checksum:              333

Satellite: SOHLA-1
Catalog number: 33496
Epoch time:      12201.91366196
Element set:    0790
Inclination:      098.1076 deg
RA of node:       313.4374 deg
Eccentricity:    0.0005747
Arg of perigee:   303.1550 deg
Mean anomaly:     056.9102 deg
Mean motion:   14.69999371 rev/day
Decay rate:       3.48e-06 rev/day^2
Epoch rev:           18705
Checksum:              312

Satellite: SO-67
Catalog number: 35870
Epoch time:      12202.87018946
Element set:     157
Inclination:      097.2302 deg
RA of node:       237.4337 deg
Eccentricity:    0.0003765
Arg of perigee:   067.3828 deg
Mean anomaly:     054.4337 deg
Mean motion:   15.24079770 rev/day
Decay rate:      3.932e-05 rev/day^2
Epoch rev:           15774
Checksum:              324

Satellite: TISAT-1
Catalog number: 36799
Epoch time:      12202.69412758
Element set:     175
Inclination:      098.0614 deg
RA of node:       279.2738 deg
Eccentricity:    0.0016333
Arg of perigee:   066.0437 deg
Mean anomaly:     294.2461 deg
Mean motion:   14.82067613 rev/day
Decay rate:      1.703e-05 rev/day^2
Epoch rev:           10945
Checksum:              310

Satellite: STUDSAT
Catalog number: 36801
Epoch time:      12201.89839087
Element set:    0435
Inclination:      098.0682 deg
RA of node:       279.3345 deg
Eccentricity:    0.0013612
Arg of perigee:   057.1823 deg
Mean anomaly:     303.0672 deg
Mean motion:   14.84606095 rev/day
Decay rate:      4.360e-05 rev/day^2
Epoch rev:           10937
Checksum:              298

Satellite: FO-69
Catalog number: 37227
Epoch time:      12179.46825757
Element set:    0219
Inclination:      071.9703 deg
RA of node:       289.2712 deg
Eccentricity:    0.0018108
Arg of perigee:   298.3339 deg
Mean anomaly:     061.6016 deg
Mean motion:   14.77092260 rev/day
Decay rate:       1.66e-06 rev/day^2
Epoch rev:           03761
Checksum:              323

Satellite: FO-70
Catalog number: 37380
Epoch time:      12179.47554455
Element set:    0223
Inclination:      071.9743 deg
RA of node:       289.8278 deg
Eccentricity:    0.0018623
Arg of perigee:   295.0880 deg
Mean anomaly:     064.8372 deg
Mean motion:   14.76843679 rev/day
Decay rate:       2.08e-06 rev/day^2
Epoch rev:           03750
Checksum:              341

Satellite: ALMASAT-1
Catalog number: 38078
Epoch time:      12202.60864756
Element set:     402
Inclination:      069.4890 deg
RA of node:       241.5036 deg
Eccentricity:    0.0755309
Arg of perigee:   206.9842 deg
Mean anomaly:     148.9950 deg
Mean motion:   14.10287831 rev/day
Decay rate:     1.2243e-04 rev/day^2
Epoch rev:            2226
Checksum:              302

